KD4KKF Weather Reports


time (UTC)temp
F
wind
direction
speed
knots
gust
knots
rain 1hr
in
rain 24hr
in
rain mn
in
humidity
%
barometer
mb
20260504220419 79 222 1.7 2.6 0.00 0.00 0.00 46 1011.6
20260504215916 79 134 4.3 6.1 0.00 0.00 0.00 44 1011.4
20260504215412 78 53 0.0 0.9 0.00 0.00 0.00 46 1011.5
20260504214909 79 182 2.6 4.3 0.00 0.00 0.00 45 1011.6
20260504214406 79 58 1.7 1.7 0.00 0.00 0.00 46 1011.5
20260504213902 79 235 0.0 0.0 0.00 0.00 0.00 46 1011.5
20260504213358 80 161 2.6 2.6 0.00 0.00 0.00 45 1011.8
20260504212856 80 188 2.6 4.3 0.00 0.00 0.00 45 1011.7
20260504212351 79 196 2.6 4.3 0.00 0.00 0.00 45 1011.7
20260504211850 80 261 1.7 2.6 0.00 0.00 0.00 45 1011.9
20260504211345 79 263 2.6 2.6 0.00 0.00 0.00 43 1011.9
20260504210843 79 238 5.2 6.1 0.00 0.00 0.00 45 1011.9
20260504210340 79 305 4.3 6.1 0.00 0.00 0.00 44 1012.1
20260504205837 80 214 3.5 5.2 0.00 0.00 0.00 43 1012.0
20260504205335 80 330 3.5 5.2 0.00 0.00 0.00 44 1011.9
20260504204833 80 175 2.6 4.3 0.00 0.00 0.00 44 1012.1
20260504204331 80 298 0.9 0.9 0.00 0.00 0.00 45 1012.3
20260504203830 79 103 3.5 5.2 0.00 0.00 0.00 45 1012.2
20260504203326 79 171 2.6 2.6 0.00 0.00 0.00 46 1012.0
20260504202822 79 229 5.2 7.0 0.00 0.00 0.00 44 1012.3
20260504202320 80 179 0.0 0.0 0.00 0.00 0.00 43 1012.6
20260504201816 79 356 0.9 0.9 0.00 0.00 0.00 45 1012.6
20260504201314 78 242 2.6 2.6 0.00 0.00 0.00 46 1012.8
20260504200811 77 280 4.3 6.1 0.00 0.00 0.00 47 1012.8
20260504200307 78 311 5.2 6.1 0.00 0.00 0.00 47 1012.9
20260504195803 80 283 2.6 2.6 0.00 0.00 0.00 45 1013.0
20260504195259 79 279 1.7 1.7 0.00 0.00 0.00 44 1012.7
20260504194756 79 166 6.1 7.8 0.00 0.00 0.00 43 1012.8
20260504194253 79 68 3.5 4.3 0.00 0.00 0.00 45 1012.8
20260504193749 80 88 2.6 4.3 0.00 0.00 0.00 46 1013.0
20260504193246 78 272 3.5 6.1 0.00 0.00 0.00 46 1013.0
20260504192745 79 171 2.6 5.2 0.00 0.00 0.00 45 1012.9
20260504192242 78 128 0.0 0.9 0.00 0.00 0.00 46 1013.2
20260504191741 78 138 1.7 1.7 0.00 0.00 0.00 47 1013.1
20260504191237 79 274 1.7 2.6 0.00 0.00 0.00 46 1013.5
20260504190733 79 163 5.2 6.1 0.00 0.00 0.00 46 1013.1
20260504190230 78 141 0.9 1.7 0.00 0.00 0.00 48 1013.4
20260504185726 78 266 3.5 4.3 0.00 0.00 0.00 48 1013.2
20260504185223 78 230 5.2 7.8 0.00 0.00 0.00 46 1013.5
20260504184719 78 150 0.9 1.7 0.00 0.00 0.00 47 1013.5
20260504184215 78 227 1.7 1.7 0.00 0.00 0.00 46 1013.3
20260504183711 79 253 3.5 4.3 0.00 0.00 0.00 45 1013.7
20260504183208 79 225 1.7 2.6 0.00 0.00 0.00 44 1013.7
20260504182706 78 166 0.0 0.9 0.00 0.00 0.00 48 1013.8
20260504182203 78 92 2.6 4.3 0.00 0.00 0.00 46 1014.0
20260504181701 78 235 1.7 1.7 0.00 0.00 0.00 46 1013.9
20260504181158 77 136 0.9 0.9 0.00 0.00 0.00 48 1013.8
20260504180657 78 282 1.7 4.3 0.00 0.00 0.00 49 1014.1
20260504180155 78 154 1.7 1.7 0.00 0.00 0.00 48 1013.8
20260504175652 78 293 2.6 4.3 0.00 0.00 0.00 49 1014.0
20260504175149 76 171 1.7 1.7 0.00 0.00 0.00 50 1014.1
20260504174647 75 249 1.7 2.6 0.00 0.00 0.00 51 1014.3
20260504174143 75 139 5.2 7.0 0.00 0.00 0.00 51 1014.5
20260504173640 75 172 1.7 1.7 0.00 0.00 0.00 54 1014.4
20260504173138 77 183 2.6 2.6 0.00 0.00 0.00 49 1014.4
20260504172634 77 186 4.3 5.2 0.00 0.00 0.00 50 1014.8
20260504172131 76 304 1.7 2.6 0.00 0.00 0.00 56 1014.6
20260504171627 75 175 0.9 1.7 0.00 0.00 0.00 52 1014.8
20260504171125 75 340 1.7 2.6 0.00 0.00 0.00 56 1014.9
20260504170621 76 240 4.3 5.2 0.00 0.00 0.00 52 1015.0
20260504170119 75 217 0.9 0.9 0.00 0.00 0.00 55 1014.9
20260504151004 72 155 0.9 1.7 0.00 0.00 0.00 63 1016.2
20260504150501 71 126 0.0 0.0 0.00 0.00 0.00 65 1016.0
20260504140922 66 195 0.0 0.0 0.00 0.00 0.00 72 1016.7
20260504140418 64 146 0.0 0.0 0.00 0.00 0.00 72 1016.4
20260504130343 59 138 2.6 4.3 0.00 0.00 0.00 83 1016.9
20260504120301 46 141 0.0 0.0 0.00 0.00 0.00 99 1016.5
20260504110224 44 162 0.0 0.0 0.00 0.00 0.00 99 1015.7
20260504100148 44 161 0.0 0.0 0.00 0.00 0.00 99 1015.8
20260504090110 44 161 0.0 0.0 0.00 0.00 0.00 99 1015.8
20260504081541 44 161 0.0 0.0 0.00 0.00 0.00 99 1015.7
20260504081036 45 161 0.0 0.0 0.00 0.00 0.00 99 1015.7
20260504080533 45 161 0.0 0.0 0.00 0.00 0.00 99 1015.7
20260504050346 48 161 0.0 0.0 0.00 0.00 0.00 99 1017.4
20260504045844 48 161 0.0 0.0 0.00 0.00 0.00 99 1017.4
20260504045344 48 161 0.0 0.0 0.00 0.00 0.00 99 1017.2
20260504044841 48 161 0.0 0.0 0.00 0.00 0.00 99 1017.3
20260504044338 48 161 0.0 0.0 0.00 0.00 0.00 99 1017.4
20260504043836 48 161 0.0 0.0 0.00 0.00 0.00 99 1017.2
20260504043332 48 161 0.0 0.0 0.00 0.00 0.00 99 1017.5
20260504042830 48 161 0.0 0.0 0.00 0.00 0.00 99 1017.6
20260504042326 49 161 0.0 0.0 0.00 0.00 0.00 99 1017.6
20260504041822 49 161 0.0 0.0 0.00 0.00 0.00 99 1017.7
20260504041318 49 161 0.0 0.0 0.00 0.00 0.00 99 1017.9
20260504040815 49 161 0.0 0.0 0.00 0.00 0.00 99 1017.9
20260504040313 49 161 0.0 0.0 0.00 0.00 0.00 99 1017.7
20260504035808 49 161 0.0 0.0 0.00 0.00 0.00 99 1017.7
20260504035306 50 161 0.0 0.0 0.00 0.00 0.00 99 1017.6
20260504034803 50 161 0.0 0.0 0.00 0.00 0.00 99 1017.8
20260504034300 50 161 0.0 0.0 0.00 0.00 0.00 99 1017.6
20260504033757 50 162 0.0 0.0 0.00 0.00 0.00 99 1017.6
20260504033255 50 161 0.0 0.0 0.00 0.00 0.00 99 1017.5
20260504032751 50 161 0.0 0.0 0.00 0.00 0.00 99 1017.4
20260504032249 50 161 0.0 0.0 0.00 0.00 0.00 99 1017.6
20260504031745 50 161 0.0 0.0 0.00 0.00 0.00 99 1017.4
20260504031243 50 161 0.0 0.0 0.00 0.00 0.00 99 1017.4
20260504030738 50 161 0.0 0.0 0.00 0.00 0.00 99 1017.4
20260504030236 50 161 0.0 0.0 0.00 0.00 0.00 98 1017.5
20260504025732 51 161 0.0 0.0 0.00 0.00 0.00 98 1017.7
20260504025229 51 161 0.0 0.0 0.00 0.00 0.00 98 1017.4
20260504024726 51 161 0.0 0.0 0.00 0.00 0.00 97 1017.8
20260504024223 52 161 0.0 0.0 0.00 0.00 0.00 96 1017.5
20260504023720 51 161 0.0 0.0 0.00 0.00 0.00 95 1017.7
20260504023216 52 161 0.0 0.0 0.00 0.00 0.00 95 1017.7
20260504022712 52 162 0.0 0.0 0.00 0.00 0.00 94 1017.8
20260504022208 52 164 0.0 0.0 0.00 0.00 0.00 94 1017.8
20260504021706 52 170 0.0 0.0 0.00 0.00 0.00 94 1017.6
20260504021202 52 170 0.0 0.0 0.00 0.00 0.00 93 1017.4
20260504020659 53 128 0.0 0.0 0.00 0.00 0.00 94 1017.7
20260504020155 53 127 0.0 0.0 0.00 0.00 0.00 93 1017.5
20260504015652 53 253 0.0 0.0 0.00 0.00 0.00 93 1017.2
20260504015148 54 253 0.0 0.0 0.00 0.00 0.00 92 1017.2
20260504014644 54 253 0.0 0.0 0.00 0.00 0.00 91 1016.9
20260504014142 54 253 0.0 0.0 0.00 0.00 0.00 90 1017.0
20260504013639 54 253 0.0 0.0 0.00 0.00 0.00 90 1016.9
20260504013136 54 253 0.0 0.0 0.00 0.00 0.00 91 1016.9
20260504012633 55 253 0.0 0.0 0.00 0.00 0.00 91 1016.8
20260504012131 55 253 0.0 0.0 0.00 0.00 0.00 92 1016.9
20260504011628 55 253 0.0 0.0 0.00 0.00 0.00 90 1016.9
20260504011124 56 253 0.0 0.0 0.00 0.00 0.00 89 1016.8
20260504010620 56 253 0.0 0.0 0.00 0.00 0.00 87 1016.6
20260504010116 57 254 0.0 0.0 0.00 0.00 0.00 86 1016.6
20260504005613 57 254 0.0 0.0 0.00 0.00 0.00 85 1016.4
20260504005110 58 254 0.0 0.0 0.00 0.00 0.00 84 1016.5
20260504004608 58 254 0.0 0.0 0.00 0.00 0.00 82 1016.6
20260504004105 58 254 0.0 0.0 0.00 0.00 0.00 81 1016.7
20260504003601 59 254 0.0 0.0 0.00 0.00 0.00 80 1016.7
20260504003058 59 254 0.0 0.0 0.00 0.00 0.00 79 1016.4
20260504002555 59 254 0.0 0.0 0.00 0.00 0.00 78 1016.4
20260504002052 60 254 0.0 0.0 0.00 0.00 0.00 75 1016.2
20260504001550 60 254 0.0 0.0 0.00 0.00 0.00 73 1016.4
20260504001045 61 254 0.0 0.0 0.00 0.00 0.00 75 1016.6
20260504000543 62 254 0.0 0.0 0.00 0.00 0.00 73 1016.4
20260504000041 63 255 0.0 0.0 0.00 0.00 0.00 71 1016.6
20260503235539 63 249 0.0 0.0 0.00 0.00 0.00 68 1016.6
20260503235035 64 250 0.0 0.0 0.00 0.00 0.00 68 1016.6
20260503234533 65 203 0.0 0.0 0.00 0.00 0.00 60 1016.2
20260503234031 66 204 0.0 0.9 0.00 0.00 0.00 61 1016.4
20260503233527 67 216 0.9 0.9 0.00 0.00 0.00 56 1016.7
20260503233023 67 198 0.0 0.0 0.00 0.00 0.00 60 1016.5
20260503232520 68 222 0.0 0.0 0.00 0.00 0.00 55 1016.4
20260503232018 69 257 0.0 0.9 0.00 0.00 0.00 47 1016.6
20260503231516 70 189 1.7 1.7 0.00 0.00 0.00 47 1016.6
20260503231012 70 174 0.0 0.0 0.00 0.00 0.00 46 1016.6
20260503230509 70 227 1.7 1.7 0.00 0.00 0.00 42 1016.8
20260503230006 71 214 0.0 0.0 0.00 0.00 0.00 42 1016.9
20260503225503 72 230 0.0 0.0 0.00 0.00 0.00 42 1016.8
20260503224958 71 235 0.0 0.0 0.00 0.00 0.00 40 1016.8
20260503224455 71 267 2.6 2.6 0.00 0.00 0.00 41 1016.9
20260503223953 71 300 1.7 2.6 0.00 0.00 0.00 41 1016.8
20260503223451 71 265 0.9 1.7 0.00 0.00 0.00 41 1016.7
20260503222946 71 259 2.6 2.6 0.00 0.00 0.00 40 1016.5
20260503222445 71 299 0.0 0.9 0.00 0.00 0.00 40 1016.7
20260503221943 72 255 2.6 2.6 0.00 0.00 0.00 40 1016.8
20260503221440 73 228 0.0 0.0 0.00 0.00 0.00 41 1016.6
20260503220932 72 342 2.6 2.6 0.00 0.00 0.00 44 1016.7